Hourly Weather Nechaevo

Today, 5 August, Wednesday

Time Temperature Precipitation Wind Pressure Humidity
00:00 +15°C° 0 mm 2 mps 748 mmHg 83%
01:00 +15°C° 0 mm 2 mps 748 mmHg 84%
02:00 +15°C° 0 mm 2 mps 748 mmHg 86%
03:00 +15°C° 0 mm 2 mps 749 mmHg 86%
04:00 +15°C° 0 mm 2 mps 749 mmHg 86%
05:00 +15°C° 0 mm 2 mps 749 mmHg 86%
06:00 +17°C° 0 mm 2 mps 749 mmHg 82%
07:00 +19°C° 0 mm 2 mps 749 mmHg 78%
08:00 +21°C° 0 mm 2 mps 749 mmHg 74%
09:00 +23°C° 0 mm 2 mps 749 mmHg 69%
10:00 +24°C° 0 mm 2 mps 749 mmHg 65%
11:00 +25°C° 0 mm 2 mps 749 mmHg 60%
12:00 +25°C° 0 mm 2 mps 749 mmHg 59%
13:00 +26°C° 0 mm 2 mps 749 mmHg 58%
14:00 +26°C° 0 mm 2 mps 749 mmHg 56%
15:00 +26°C° 0 mm 1 mps 749 mmHg 59%
16:00 +26°C° 0 mm 1 mps 748 mmHg 62%
17:00 +26°C° 0 mm 1 mps 748 mmHg 66%
18:00 +24°C° 0 mm 1 mps 748 mmHg 70%
19:00 +22°C° 0 mm 1 mps 748 mmHg 74%
20:00 +20°C° 0 mm 1 mps 748 mmHg 78%
21:00 +19°C° 0 mm 1 mps 749 mmHg 80%
22:00 +19°C° 0 mm 1 mps 749 mmHg 82%
23:00 +18°C° 0 mm 1 mps 749 mmHg 83%

Tomorrow, 6 August, Thursday

Time Temperature Precipitation Wind Pressure Humidity
00:00 +18°C° 0 mm 1 mps 749 mmHg 84%
01:00 +18°C° 0 mm 1 mps 749 mmHg 86%
02:00 +16°C° 0 mm 1 mps 749 mmHg 87%
03:00 +18°C° 0 mm 1 mps 749 mmHg 86%
04:00 +18°C° 0 mm 1 mps 749 mmHg 86%
05:00 +18°C° 0 mm 1 mps 749 mmHg 85%
06:00 +20°C° 0 mm 1 mps 749 mmHg 81%
07:00 +22°C° 0 mm 1 mps 749 mmHg 76%
08:00 +23°C° 0 mm 2 mps 750 mmHg 72%
09:00 +24°C° 0 mm 2 mps 750 mmHg 70%
10:00 +25°C° 0 mm 2 mps 749 mmHg 68%
11:00 +26°C° 0 mm 2 mps 749 mmHg 65%
12:00 +26°C° 0 mm 2 mps 749 mmHg 65%
13:00 +26°C° 0 mm 2 mps 749 mmHg 65%
14:00 +27°C° 0 mm 2 mps 749 mmHg 65%
15:00 +26°C° 0.2 mm 2 mps 749 mmHg 69%
16:00 +26°C° 0.2 mm 2 mps 749 mmHg 73%
17:00 +26°C° 0.2 mm 2 mps 749 mmHg 77%
18:00 +24°C° 0.3 mm 3 mps 749 mmHg 83%
19:00 +21°C° 0.3 mm 3 mps 749 mmHg 89%
20:00 +20°C° 0.3 mm 3 mps 749 mmHg 95%
21:00 +19°C° 0 mm 3 mps 749 mmHg 93%
22:00 +18°C° 0 mm 3 mps 749 mmHg 92%
23:00 +17°C° 0 mm 3 mps 750 mmHg 91%

Day after tomorrow, 7 August, Friday

Time Temperature Precipitation Wind Pressure Humidity
00:00 +16°C° 0 mm 3 mps 750 mmHg 92%
01:00 +14°C° 0 mm 3 mps 750 mmHg 93%
02:00 +14°C° 0 mm 3 mps 750 mmHg 94%
03:00 +14°C° 0 mm 3 mps 750 mmHg 94%
04:00 +14°C° 0 mm 3 mps 751 mmHg 95%
05:00 +14°C° 0 mm 3 mps 751 mmHg 95%
06:00 +17°C° 0 mm 3 mps 751 mmHg 88%
07:00 +18°C° 0 mm 4 mps 751 mmHg 81%
08:00 +19°C° 0 mm 4 mps 751 mmHg 74%
09:00 +20°C° 0 mm 4 mps 752 mmHg 69%
10:00 +22°C° 0 mm 4 mps 752 mmHg 63%
11:00 +23°C° 0 mm 5 mps 752 mmHg 57%
12:00 +23°C° 0 mm 5 mps 752 mmHg 56%
13:00 +23°C° 0 mm 4 mps 752 mmHg 55%
14:00 +25°C° 0 mm 4 mps 751 mmHg 55%
15:00 +23°C° 0 mm 4 mps 751 mmHg 59%
16:00 +24°C° 0 mm 3 mps 751 mmHg 63%
17:00 +24°C° 0 mm 3 mps 751 mmHg 67%
18:00 +21°C° 0 mm 2 mps 751 mmHg 71%
19:00 +19°C° 0 mm 2 mps 751 mmHg 76%
20:00 +17°C° 0 mm 2 mps 751 mmHg 80%
21:00 +17°C° 0 mm 2 mps 751 mmHg 82%
22:00 +16°C° 0 mm 2 mps 751 mmHg 84%
23:00 +15°C° 0 mm 2 mps 751 mmHg 85%

8 August, Saturday

Time Temperature Precipitation Wind Pressure Humidity
00:00 +15°C° 0 mm 2 mps 751 mmHg 87%
01:00 +14°C° 0 mm 2 mps 751 mmHg 88%
02:00 +14°C° 0 mm 2 mps 751 mmHg 89%
03:00 +14°C° 0 mm 2 mps 752 mmHg 90%
04:00 +14°C° 0 mm 2 mps 752 mmHg 90%
05:00 +14°C° 0 mm 2 mps 752 mmHg 91%
06:00 +16°C° 0 mm 2 mps 752 mmHg 84%
07:00 +18°C° 0 mm 2 mps 751 mmHg 78%
08:00 +19°C° 0 mm 2 mps 751 mmHg 72%
09:00 +21°C° 0 mm 2 mps 751 mmHg 66%
10:00 +23°C° 0 mm 2 mps 751 mmHg 60%
11:00 +24°C° 0 mm 3 mps 751 mmHg 54%
12:00 +24°C° 0 mm 2 mps 751 mmHg 53%
13:00 +25°C° 0 mm 2 mps 750 mmHg 51%
14:00 +25°C° 0 mm 2 mps 750 mmHg 50%
15:00 +25°C° 0 mm 2 mps 750 mmHg 54%
16:00 +25°C° 0 mm 1 mps 749 mmHg 58%
17:00 +24°C° 0 mm 1 mps 749 mmHg 63%
18:00 +22°C° 0 mm 1 mps 749 mmHg 67%
19:00 +20°C° 0 mm 1 mps 749 mmHg 71%
20:00 +18°C° 0 mm 1 mps 749 mmHg 75%
21:00 +18°C° 0 mm 1 mps 748 mmHg 78%
22:00 +16°C° 0 mm 1 mps 748 mmHg 80%
23:00 +15°C° 0 mm 1 mps 748 mmHg 82%

9 August, Sunday

Time Temperature Precipitation Wind Pressure Humidity
00:00 +15°C° 0 mm 1 mps 748 mmHg 84%
01:00 +15°C° 0 mm 2 mps 748 mmHg 85%
02:00 +15°C° 0 mm 2 mps 747 mmHg 86%
03:00 +15°C° 0 mm 2 mps 747 mmHg 87%
04:00 +15°C° 0 mm 2 mps 747 mmHg 87%
05:00 +15°C° 0 mm 2 mps 747 mmHg 88%
06:00 +17°C° 0 mm 2 mps 747 mmHg 84%
07:00 +19°C° 0 mm 2 mps 747 mmHg 80%
08:00 +20°C° 0 mm 2 mps 746 mmHg 76%
09:00 +21°C° 0 mm 2 mps 746 mmHg 71%
10:00 +24°C° 0 mm 2 mps 746 mmHg 65%
11:00 +25°C° 0 mm 2 mps 746 mmHg 59%
12:00 +25°C° 0.2 mm 3 mps 746 mmHg 60%
13:00 +25°C° 0.2 mm 3 mps 746 mmHg 60%
14:00 +25°C° 0.2 mm 3 mps 745 mmHg 60%
15:00 +25°C° 0.2 mm 3 mps 745 mmHg 65%
16:00 +24°C° 0.2 mm 3 mps 745 mmHg 69%
17:00 +22°C° 0.2 mm 3 mps 745 mmHg 74%
18:00 +21°C° 0.1 mm 2 mps 745 mmHg 79%
19:00 +19°C° 0.1 mm 2 mps 745 mmHg 85%
20:00 +17°C° 0.1 mm 2 mps 745 mmHg 90%
21:00 +16°C° 0 mm 2 mps 746 mmHg 91%
22:00 +16°C° 0 mm 2 mps 746 mmHg 91%
23:00 +15°C° 0 mm 2 mps 746 mmHg 92%

10 August, Monday

Time Temperature Precipitation Wind Pressure Humidity
00:00 +14°C° 0 mm 2 mps 746 mmHg 92%
01:00 +14°C° 0 mm 2 mps 746 mmHg 93%
02:00 +13°C° 0 mm 2 mps 746 mmHg 93%
03:00 +13°C° 0 mm 2 mps 746 mmHg 93%
04:00 +13°C° 0 mm 2 mps 746 mmHg 93%
05:00 +13°C° 0 mm 2 mps 747 mmHg 93%
06:00 +13°C° 0 mm 3 mps 747 mmHg 86%
07:00 +16°C° 0 mm 3 mps 747 mmHg 79%
08:00 +17°C° 0 mm 4 mps 747 mmHg 72%
09:00 +18°C° 0 mm 4 mps 747 mmHg 68%
10:00 +19°C° 0 mm 4 mps 747 mmHg 64%
11:00 +21°C° 0 mm 4 mps 747 mmHg 60%
12:00 +21°C° 0 mm 4 mps 747 mmHg 58%
13:00 +21°C° 0 mm 4 mps 747 mmHg 55%
14:00 +22°C° 0 mm 4 mps 747 mmHg 53%
15:00 +22°C° 0 mm 3 mps 747 mmHg 57%
16:00 +21°C° 0 mm 3 mps 747 mmHg 60%
17:00 +21°C° 0 mm 2 mps 747 mmHg 64%
18:00 +19°C° 0 mm 2 mps 747 mmHg 69%
19:00 +19°C° 0 mm 1 mps 747 mmHg 74%
20:00 +16°C° 0 mm 1 mps 747 mmHg 79%
21:00 +16°C° 0 mm 1 mps 747 mmHg 81%
22:00 +15°C° 0 mm 1 mps 747 mmHg 84%
23:00 +15°C° 0 mm 1 mps 747 mmHg 86%
Show more